Theta_e
286 286 286 287 287 286 286 287 286 280 281 284 284 286 287 288 290 289 288 290 292 293 293 294 294 295 295 296 297 298 300 299 300 301 302 302 302 303
285 285 284 285 284 284 284 284 285 284 280 284 284 285 286 287 288 287 287 289 290 291 292 292 293 293 294 294 295 295 296 297 298 298 298 298 298 300
283 283 283 283 282 283 283 283 282 283 281 283 284 286 285 285 286 286 286 286 286 289 290 291 292 292 292 292 293 293 293 294 293 294 295 297 298 299
282 282 281 284 282 282 283 282 282 284 283 281 283 284 284 284 284 283 285 286 284 287 289 290 290 290 290 291 292 292 292 291 291 293 297 297 297 300
281 281 282 282 281 282 282 281 283 285 284 283 282 283 283 283 284 283 283 283 284 286 287 288 288 289 289 291 292 294 293 292 294 293 293 294 295 296
282 283 283 283 282 282 282 281 283 283 283 283 282 282 283 284 283 281 280 282 280 282 284 285 286 286 287 288 292 291 292 292 292 291 291 292 292 293
282 283 283 283 285 285 283 283 284 283 282 281 281 281 281 281 281 282 280 280 279 276 279 281 279 281 282 283 289 290 290 291 290 290 289 290 290 290
282 282 283 283 284 285 286 286 286 283 282 282 282 280 281 281 282 279 279 276 274 277 277 278 278 279 280 281 289 290 289 289 289 288 288 288 288 288
282 282 282 282 282 283 285 286 285 286 287 284 281 281 282 282 280 277 277 275 272 276 277 272 275 275 280 279 286 287 289 288 287 287 286 286 286 286
282 282 282 282 282 283 283 283 283 284 284 284 283 284 284 283 280 276 272 267 270 274 275 271 273 274 278 278 283 284 285 285 287 286 285 284 283 282
283 282 281 281 284 286 284 282 280 283 286 287 287 286 286 284 281 267 268 270 264 269 277 274 272 273 275 274 275 280 281 281 283 285 284 282 280 278
281 282 282 283 285 286 281 277 275 276 282 281 282 282 278 275 280 270 271 270 263 264 274 272 271 274 269 272 273 273 274 277 278 279 281 282 279 274
279 279 280 284 285 286 286 282 277 282 282 279 278 275 272 270 271 272 273 271 265 265 273 273 268 270 269 271 273 272 272 272 272 272 275 278 280 277
277 279 279 284 286 286 283 285 286 284 278 278 278 278 277 276 273 271 270 273 273 272 271 272 270 269 267 266 268 271 271 271 271 270 270 273 274 276
280 281 284 285 285 283 283 283 281 273 272 268 273 278 279 274 270 269 267 269 272 270 272 271 270 270 266 263 264 266 268 270 270 269 269 269 269 270
281 278 281 283 281 279 273 276 275 278 275 270 267 269 269 267 268 268 267 266 264 265 271 271 271 270 265 265 266 263 267 264 267 268 268 267 268 268
275 270 271 269 268 269 267 266 267 270 271 266 265 266 267 268 268 266 265 262 263 264 265 266 270 270 269 268 260 265 265 264 266 265 265 264 266 267
267 265 264 265 266 266 265 266 265 266 269 267 264 264 265 269 270 266 264 263 263 263 263 265 266 264 264 266 269 262 261 262 263 264 263 259 261 266
262 260 261 261 261 264 263 264 266 265 266 265 265 266 267 267 267 266 265 266 264 263 263 264 263 261 257 257 260 270 261 261 260 259 262 260 259 264
258 257 257 256 257 258 259 260 261 261 263 264 264 264 264 263 264 264 264 260 261 261 259 260 261 260 257 257 255 261 270 259 258 258 259 260 263 268
255 253 253 252 254 254 254 255 257 259 260 259 261 261 260 261 264 264 262 264 262 259 258 260 263 264 261 255 254 255 259 267 264 258 257 256 256 258
254 251 251 249 250 251 251 252 253 254 256 256 258 259 260 261 263 262 262 260 260 261 260 262 261 258 255 256 253 253 256 258 262 266 268 265 257 254
254 252 250 249 249 249 249 250 251 253 254 254 256 258 259 258 259 261 261 260 258 258 257 258 258 257 255 255 252 253 252 253 255 257 259 267 268 268
Wind_Speed
5 5 4 3 3 3 2 1 3 4 2 2 4 5 7 7 13 12 12 20 26 26 29 30 32 32 32 32 33 33 33 34 34 33 33 32 33 34
4 5 4 3 4 3 2 2 2 3 4 3 5 9 9 8 11 10 12 17 22 26 28 30 30 30 31 32 34 34 33 32 32 32 32 33 33 33
5 5 5 4 3 3 3 2 2 1 5 6 8 10 13 12 13 10 10 11 11 22 27 27 29 30 31 32 31 31 31 30 28 28 28 30 30 32
5 5 5 3 5 4 3 4 3 4 7 13 13 10 11 12 10 11 9 8 10 18 25 26 27 28 30 31 32 32 28 26 24 24 23 26 23 36
5 5 4 4 4 4 4 4 3 5 7 8 11 8 8 8 13 10 8 11 9 20 19 23 23 27 27 31 33 32 22 21 29 28 27 30 31 35
4 5 4 4 4 4 4 4 4 6 7 6 8 8 10 9 9 10 13 10 12 9 12 16 19 23 26 30 25 28 28 29 28 28 29 31 32 34
5 4 3 4 4 6 3 4 5 4 5 6 6 9 10 9 11 7 10 11 11 1 9 9 5 8 12 20 17 26 28 28 29 29 30 31 32 34
4 2 2 3 3 7 10 11 10 6 7 5 5 8 9 9 6 7 9 10 8 3 7 9 4 6 9 11 28 25 25 25 26 27 29 30 31 33
3 2 1 1 2 4 6 10 9 13 12 7 8 7 9 8 5 7 6 5 4 5 5 4 3 3 6 8 24 26 27 25 25 26 26 27 30 31
3 2 2 2 3 3 4 7 7 7 6 4 5 6 5 2 1 1 3 4 6 2 5 3 3 3 3 5 20 22 24 27 26 25 25 25 26 28
2 2 2 3 7 9 5 5 4 7 6 10 12 15 10 7 5 2 3 4 4 3 4 3 3 3 1 3 7 19 20 21 24 25 24 24 23 23
2 2 7 7 9 11 4 3 4 5 3 2 5 7 7 6 6 3 2 1 2 4 2 6 3 3 4 0 4 6 7 18 19 21 23 25 22 9
2 2 3 11 12 11 11 4 6 4 3 1 2 3 4 4 3 3 4 3 3 3 3 3 3 3 2 4 1 3 6 7 7 9 17 21 23 19
3 3 4 12 13 13 8 13 15 6 1 3 3 6 6 5 3 3 4 4 3 5 4 2 3 1 2 3 3 4 2 5 6 6 7 12 17 20
2 6 12 11 10 6 10 13 9 1 1 1 4 6 6 3 3 3 2 3 3 3 3 1 3 2 1 1 3 3 4 3 5 5 6 7 7 6
6 4 8 7 5 6 2 5 2 2 2 3 3 3 2 1 2 1 1 1 1 3 3 2 3 2 1 1 1 2 3 3 5 4 4 4 5 6
3 0 1 1 2 2 2 2 2 2 3 3 2 3 2 1 2 0 0 1 1 2 3 2 3 2 1 1 1 1 2 2 3 4 3 3 4 5
3 1 2 1 1 2 2 2 2 3 3 2 2 2 2 2 2 1 1 1 1 1 2 2 3 3 3 3 5 1 2 2 2 4 3 2 3 5
3 3 3 1 2 3 2 2 3 3 2 2 2 2 1 2 2 1 1 1 1 1 2 1 1 1 1 2 2 6 1 2 2 3 2 1 1 3
2 3 2 2 2 2 2 2 2 2 2 2 2 1 1 1 2 1 0 1 1 1 2 1 1 1 3 3 2 2 5 1 1 1 2 2 3 7
3 2 3 2 2 2 2 3 3 3 1 0 1 1 1 1 2 2 2 3 3 2 2 2 1 2 1 2 3 4 3 4 2 3 1 1 2 3
2 3 3 3 4 4 3 2 2 2 1 1 1 0 0 1 3 3 2 2 2 2 2 1 1 1 1 2 3 3 3 3 4 6 6 6 4 1
4 4 3 3 3 3 3 2 3 3 2 2 1 1 1 1 1 2 3 3 2 2 1 2 0 1 1 1 3 2 2 3 3 4 3 4 5 8
Wind_Direction
86 76 80 60 55 53 54 43 0 324 299 293 10 20 338 334 335 333 328 322 329 332 332 331 332 330 328 326 322 320 320 319 315 318 317 317 316 312
68 77 64 47 45 39 44 51 68 347 297 346 342 325 325 326 328 332 326 323 325 330 333 335 335 334 332 330 329 326 323 320 321 321 320 313 308 305
71 76 65 53 46 39 25 15 23 340 308 316 322 323 328 332 333 338 325 325 322 330 335 337 340 340 344 336 330 326 322 321 322 321 318 314 314 317
86 83 65 56 46 24 19 15 355 338 331 317 324 327 328 336 328 327 323 332 326 330 338 342 346 348 343 343 337 329 324 331 328 321 349 6 358 1
93 87 82 65 41 13 4 355 335 335 329 317 321 329 326 321 333 330 337 333 332 332 332 343 350 350 355 352 354 24 15 9 42 29 24 22 18 16
102 98 77 62 42 355 339 329 330 331 328 323 325 317 327 334 331 331 340 344 329 329 335 349 351 357 2 356 14 28 31 33 32 28 25 25 24 23
101 102 88 54 14 349 329 327 321 313 317 322 311 322 326 342 338 345 331 327 325 23 344 341 349 358 1 353 22 28 31 31 31 30 28 27 27 27
106 104 73 36 335 335 331 325 320 322 314 308 317 319 319 331 328 342 333 341 336 4 345 327 11 2 6 352 20 30 32 32 30 28 27 31 29 30
151 152 111 210 309 307 312 315 308 303 311 313 309 306 312 322 339 324 329 318 270 321 329 302 354 350 11 353 18 23 26 32 31 30 28 27 29 34
191 212 222 281 285 291 268 310 315 288 282 279 276 284 289 300 312 283 280 269 277 277 10 306 322 309 339 7 17 22 24 25 31 33 33 31 31 31
214 220 231 261 283 301 286 289 305 282 275 311 321 323 329 324 328 52 350 356 320 311 19 300 294 301 305 356 8 23 21 25 23 28 37 36 30 28
251 254 256 248 279 298 276 235 251 255 260 299 323 325 341 311 316 186 209 229 254 323 298 344 310 346 323 251 34 15 5 21 24 25 26 32 37 23
192 246 248 266 283 286 294 256 224 258 277 242 278 318 317 290 267 235 208 177 183 239 318 340 302 322 272 298 38 30 17 7 10 16 20 28 33 46
206 230 253 283 280 280 298 312 305 322 27 291 278 297 295 297 274 269 248 215 219 227 291 285 274 348 302 310 328 353 20 17 12 13 12 21 30 31
217 259 277 295 295 307 316 316 315 135 182 269 270 280 281 246 273 299 314 274 238 235 276 278 245 287 347 264 285 328 347 11 6 11 13 19 18 10
270 275 272 288 322 314 322 329 301 266 237 232 242 252 276 301 273 196 249 292 37 294 264 54 3 14 271 325 27 307 346 4 342 357 6 16 13 9
243 27 269 311 309 313 326 315 312 284 249 238 245 281 289 292 286 81 262 329 160 276 297 321 328 330 343 192 39 333 330 344 344 351 13 348 0 360
56 178 253 254 290 297 293 290 292 279 264 241 248 232 252 270 275 268 146 199 237 266 280 321 323 346 346 325 82 269 351 319 320 356 7 69 339 343
152 207 209 225 272 299 298 277 280 282 277 268 266 270 282 285 282 253 235 224 264 248 257 308 328 71 45 251 307 51 125 318 329 355 358 5 268 309
182 182 214 216 258 254 267 260 288 302 288 297 298 302 341 303 309 306 326 218 227 249 277 276 235 169 169 219 246 272 2 146 102 288 313 304 270 303
201 206 212 220 254 270 272 280 265 260 227 257 289 7 353 322 289 298 291 283 257 195 258 238 173 359 83 50 8 307 294 328 165 183 235 65 325 329
207 220 226 214 225 226 240 252 293 313 289 212 222 172 244 288 290 306 303 293 260 246 248 273 61 91 92 158 233 268 288 317 317 295 248 216 164 273
208 204 221 226 231 240 237 226 213 237 226 212 181 228 198 267 253 282 288 276 257 284 266 295 263 89 146 175 187 262 291 298 328 334 306 258 297 293